Flag for China Weather past 2 weeks in Shenzhen, Guangdong, China

Now
63 °F

Fog.


Feels Like: 63 °F
Forecast: 59 / 75 °F
Wind: 6 mph from North

Location: Shenzhen Airport

Current Time: Mar 6, 2015 at 12:07:30 PM

Latest Report: Mar 6, 2015 at 11:00 AM


Visibility: 2 mi

Pressure: 30.07 "Hg

Humidity: 88%

Dew point: 59 °F

Location of ShenzhenLocation

Historic Weather in Shenzhen — Graph

°F

Shenzhen temperature yesterday

Maximum temperature yesterday: 70 °F (at 1:00 PM)
Minimum temperature yesterday: 61 °F (at 12:00 AM)
Average temperature yesterday: 64 °F

Past Weeks' High & Low Weather Summary

 TemperatureHumidityPressure
High79 °F (Feb 25, 12:00 PM)94% (Feb 21, 7:00 AM)30.21 "Hg (Feb 21, 7:00 AM)
Low57 °F (Mar 4, 3:00 AM)49% (Mar 1, 1:00 PM)29.80 "Hg (Mar 3, 4:00 PM)
Average68 °F80%29.98 "Hg
* Reported Feb 19 10:00 AM — Mar 6 10:00 AM, Shenzhen, Weather by CustomWeather, © 2015

Note: Actual official high and low records may vary slightly from our data, if they occured in-between our weather recording intervals... More about our weather records

Advertising

Shenzhen weather history for previous 24 hours

 ConditionsComfort  
Time TempWeatherWind HumidityBarometerVisibility
10:00 AM
Fri, Mar 6
64 °FFog.6 mph88%30.07 "Hg2 mi
9:00 AM64 °FFog.3 mph88%30.07 "Hg1 mi
8:00 AM63 °FFog.3 mph94%30.04 "Hg1 mi
7:00 AM63 °FFog.6 mph94%30.04 "Hg1 mi
6:00 AM63 °FFog.6 mph94%30.01 "Hg2 mi
5:00 AM64 °FFog.6 mph88%29.98 "Hg1 mi
4:00 AM64 °FFog.6 mph88%29.98 "Hg2 mi
3:00 AM63 °FFog.1 mph94%29.98 "Hg3 mi
2:00 AM63 °FLight rain. Fog.3 mph94%30.01 "Hg1 mi
1:00 AM64 °FLight rain. Fog.6 mph88%30.01 "Hg2 mi
12:00 AM64 °FMostly cloudy.3 mph88%30.01 "Hg4 mi
11:00 PM
Thu, Mar 5
66 °FMostly cloudy.3 mph83%30.01 "Hg5 mi
10:00 PM64 °FPartly cloudy.8 mph88%30.01 "HgN/A
9:00 PM66 °FPartly cloudy.6 mph83%30.01 "HgN/A
8:00 PM66 °FPartly cloudy.6 mph83%29.98 "HgN/A
7:00 PM66 °FPartly cloudy.10 mph83%29.95 "HgN/A
6:00 PM66 °FBroken clouds.8 mph83%29.95 "HgN/A
5:00 PM64 °FMore clouds than sun.3 mph94%29.95 "Hg4 mi
4:00 PM64 °FLight rain. Fog.6 mph88%29.95 "Hg2 mi
3:00 PM64 °FPartly sunny.8 mph88%29.95 "Hg4 mi
2:00 PM66 °FPartly sunny.6 mph83%29.95 "HgN/A
1:00 PM70 °FPartly sunny.8 mph73%29.98 "HgN/A
12:00 PM68 °FPartly sunny.8 mph78%30.01 "HgN/A
Weather by CustomWeather, © 2015

See weather overviewHow to use our weather pages